owner,sensor,date,latitude,longitude,vertical_datum,wind_speed,wind_to_direction,wind_speed_of_gust,qcFlag 
TCOON,ioos:station:TCOON:146:1,2014-01-01T00:00:00Z,28.1324,-97.0345,0.0,3.0,334.0,3.7,'1111122,1111122,1111122' 
TCOON,ioos:station:TCOON:146:1,2014-01-01T01:00:00Z,28.1324,-97.0345,0.0,2.5,23.0,3.2,'1111122,1111122,1111122' 
TCOON,ioos:station:TCOON:146:1,2014-01-01T02:00:00Z,28.1324,-97.0345,0.0,2.7,35.0,3.2,'1111122,1111122,1111122' 
TCOON,ioos:station:TCOON:146:1,2014-01-01T03:00:00Z,28.1324,-97.0345,0.0,2.7,20.0,3.4,'1111122,1111122,1111122' 
TCOON,ioos:station:TCOON:146:1,2014-01-01T04:00:00Z,28.1324,-97.0345,0.0,2.0,97.0,2.7,'1111122,1111122,1111122' 
TCOON,ioos:station:TCOON:146:1,2014-01-01T05:00:00Z,28.1324,-97.0345,0.0,1.2,33.0,2.0,'1111122,1111122,1111122' 
TCOON,ioos:station:TCOON:146:1,2014-01-01T06:00:00Z,28.1324,-97.0345,0.0,1.5,20.0,2.0,'1111122,1111122,1111122' 
TCOON,ioos:station:TCOON:146:1,2014-01-01T07:00:00Z,28.1324,-97.0345,0.0,2.4,350.0,3.0,'1111122,1111122,1111122' 
TCOON,ioos:station:TCOON:146:1,2014-01-01T08:00:00Z,28.1324,-97.0345,0.0,3.5,327.0,4.3,'1111122,1111122,1111122' 
TCOON,ioos:station:TCOON:146:1,2014-01-01T09:00:00Z,28.1324,-97.0345,0.0,3.9,342.0,4.4,'1111122,1111122,1111122' 
TCOON,ioos:station:TCOON:146:1,2014-01-01T10:00:00Z,28.1324,-97.0345,0.0,3.0,349.0,3.6,'1111122,1111122,1111122' 
TCOON,ioos:station:TCOON:146:1,2014-01-01T11:00:00Z,28.1324,-97.0345,0.0,4.1,349.0,4.9,'1111122,1111122,1111122' 
TCOON,ioos:station:TCOON:146:1,2014-01-01T12:00:00Z,28.1324,-97.0345,0.0,3.4,340.0,4.0,'1111122,1111122,1111122' 
TCOON,ioos:station:TCOON:146:1,2014-01-01T13:00:00Z,28.1324,-97.0345,0.0,3.0,330.0,3.4,'1111122,1111122,1111122' 
TCOON,ioos:station:TCOON:146:1,2014-01-01T14:00:00Z,28.1324,-97.0345,0.0,3.2,330.0,3.7,'1111122,1111122,1111122' 
TCOON,ioos:station:TCOON:146:1,2014-01-01T15:00:00Z,28.1324,-97.0345,0.0,2.4,335.0,2.9,'1111122,1111122,1111122' 
TCOON,ioos:station:TCOON:146:1,2014-01-01T16:00:00Z,28.1324,-97.0345,0.0,1.9,344.0,2.3,'1111122,1111122,1111122' 
TCOON,ioos:station:TCOON:146:1,2014-01-01T17:00:00Z,28.1324,-97.0345,0.0,1.6,316.0,2.0,'1111122,1111122,1111122' 
TCOON,ioos:station:TCOON:146:1,2014-01-01T18:00:00Z,28.1324,-97.0345,0.0,0.9,28.0,1.3,'1111122,1111122,1111122' 
TCOON,ioos:station:TCOON:146:1,2014-01-01T19:00:00Z,28.1324,-97.0345,0.0,1.5,245.0,2.3,'1111122,1111122,1111122' 
TCOON,ioos:station:TCOON:146:1,2014-01-01T20:00:00Z,28.1324,-97.0345,0.0,2.5,240.0,2.8,'1111122,1111122,1111122' 
TCOON,ioos:station:TCOON:146:1,2014-01-01T21:00:00Z,28.1324,-97.0345,0.0,2.8,228.0,3.0,'1111122,1111122,1111122' 
TCOON,ioos:station:TCOON:146:1,2014-01-01T22:00:00Z,28.1324,-97.0345,0.0,3.5,280.0,3.9,'1111122,1111122,1111122' 
TCOON,ioos:station:TCOON:146:1,2014-01-01T23:00:00Z,28.1324,-97.0345,0.0,3.4,313.0,3.7,'1111122,1111122,1111122' 
TCOON,ioos:station:TCOON:146:1,2014-01-02T00:00:00Z,28.1324,-97.0345,0.0,0.7,331.0,1.1,'1111122,1111122,1111122' 
TCOON,ioos:station:TCOON:146:1,2014-01-02T01:00:00Z,28.1324,-97.0345,0.0,1.6,358.0,1.8,'1111122,1111122,1111122' 
TCOON,ioos:station:TCOON:146:1,2014-01-02T02:00:00Z,28.1324,-97.0345,0.0,2.7,340.0,2.8,'1111122,1111122,1111122' 
TCOON,ioos:station:TCOON:146:1,2014-01-02T03:00:00Z,28.1324,-97.0345,0.0,2.7,340.0,3.1,'1111122,1111122,1111122' 
TCOON,ioos:station:TCOON:146:1,2014-01-02T04:00:00Z,28.1324,-97.0345,0.0,1.9,329.0,2.2,'1111122,1111122,1111122' 
TCOON,ioos:station:TCOON:146:1,2014-01-02T05:00:00Z,28.1324,-97.0345,0.0,2.1,346.0,2.4,'1111122,1111122,1111122' 
TCOON,ioos:station:TCOON:146:1,2014-01-02T07:00:00Z,28.1324,-97.0345,0.0,3.6,9.0,4.1,'1111122,1111122,1111122' 
TCOON,ioos:station:TCOON:146:1,2014-01-02T08:00:00Z,28.1324,-97.0345,0.0,3.4,345.0,3.8,'1111122,1111122,1111122' 
TCOON,ioos:station:TCOON:146:1,2014-01-02T09:00:00Z,28.1324,-97.0345,0.0,3.5,348.0,4.2,'1111122,1111122,1111122' 
TCOON,ioos:station:TCOON:146:1,2014-01-02T10:00:00Z,28.1324,-97.0345,0.0,4.6,339.0,5.2,'1111122,1111122,1111122' 
TCOON,ioos:station:TCOON:146:1,2014-01-02T10:30:00Z,28.1324,-97.0345,0.0,5.9,326.0,8.9,'1111122,1111122,1111122' 
TCOON,ioos:station:TCOON:146:1,2014-01-02T11:00:00Z,28.1324,-97.0345,0.0,7.1,326.0,8.0,'1111122,1111122,1111122' 
TCOON,ioos:station:TCOON:146:1,2014-01-02T12:00:00Z,28.1324,-97.0345,0.0,12.5,352.0,17.0,'1111122,1111122,1111122' 
TCOON,ioos:station:TCOON:146:1,2014-01-02T13:00:00Z,28.1324,-97.0345,0.0,9.2,351.0,10.9,'1111122,1111122,1111122' 
TCOON,ioos:station:TCOON:146:1,2014-01-02T14:00:00Z,28.1324,-97.0345,0.0,12.6,352.0,15.6,'1111122,1111122,1111122' 
TCOON,ioos:station:TCOON:146:1,2014-01-02T15:00:00Z,28.1324,-97.0345,0.0,13.5,352.0,16.9,'1111122,1111122,1111122' 
TCOON,ioos:station:TCOON:146:1,2014-01-02T16:00:00Z,28.1324,-97.0345,0.0,11.6,358.0,14.4,'1111122,1111122,1111122' 
TCOON,ioos:station:TCOON:146:1,2014-01-02T16:30:00Z,28.1324,-97.0345,0.0,9.9,357.0,12.8,'1111122,1111122,1111122' 
TCOON,ioos:station:TCOON:146:1,2014-01-02T18:00:00Z,28.1324,-97.0345,0.0,9.8,352.0,12.9,'1111122,1111122,1111122' 
TCOON,ioos:station:TCOON:146:1,2014-01-02T19:00:00Z,28.1324,-97.0345,0.0,8.8,354.0,11.3,'1111122,1111122,1111122' 
TCOON,ioos:station:TCOON:146:1,2014-01-02T20:00:00Z,28.1324,-97.0345,0.0,8.6,358.0,10.8,'1111122,1111122,1111122' 
TCOON,ioos:station:TCOON:146:1,2014-01-02T21:00:00Z,28.1324,-97.0345,0.0,8.8,344.0,10.7,'1111122,1111122,1111122' 
TCOON,ioos:station:TCOON:146:1,2014-01-02T22:00:00Z,28.1324,-97.0345,0.0,7.3,345.0,9.4,'1111122,1111122,1111122' 
TCOON,ioos:station:TCOON:146:1,2014-01-02T23:00:00Z,28.1324,-97.0345,0.0,8.2,354.0,9.6,'1111122,1111122,1111122' 
TCOON,ioos:station:TCOON:146:1,2014-01-03T00:00:00Z,28.1324,-97.0345,0.0,5.7,337.0,7.3,'1111122,1111122,1111122' 
TCOON,ioos:station:TCOON:146:1,2014-01-03T01:00:00Z,28.1324,-97.0345,0.0,5.5,347.0,7.0,'1111122,1111122,1111122' 
TCOON,ioos:station:TCOON:146:1,2014-01-03T02:00:00Z,28.1324,-97.0345,0.0,4.0,334.0,4.9,'1111122,1111122,1111122' 
TCOON,ioos:station:TCOON:146:1,2014-01-03T03:00:00Z,28.1324,-97.0345,0.0,3.4,328.0,4.1,'1111122,1111122,1111122' 
TCOON,ioos:station:TCOON:146:1,2014-01-03T04:00:00Z,28.1324,-97.0345,0.0,5.2,358.0,6.0,'1111122,1111122,1111122' 
TCOON,ioos:station:TCOON:146:1,2014-01-03T10:00:00Z,28.1324,-97.0345,0.0,5.5,356.0,6.3,'1111122,1111122,1111122' 
TCOON,ioos:station:TCOON:146:1,2014-01-03T11:00:00Z,28.1324,-97.0345,0.0,5.4,1.0,6.3,'1111122,1111122,1111122' 
TCOON,ioos:station:TCOON:146:1,2014-01-03T12:00:00Z,28.1324,-97.0345,0.0,4.7,14.0,5.8,'1111122,1111122,1111122' 
TCOON,ioos:station:TCOON:146:1,2014-01-03T13:00:00Z,28.1324,-97.0345,0.0,3.6,357.0,4.4,'1111122,1111122,1111122' 
TCOON,ioos:station:TCOON:146:1,2014-01-03T14:00:00Z,28.1324,-97.0345,0.0,4.4,343.0,5.1,'1111122,1111122,1111122' 
TCOON,ioos:station:TCOON:146:1,2014-01-03T15:00:00Z,28.1324,-97.0345,0.0,5.2,16.0,5.9,'1111122,1111122,1111122' 
TCOON,ioos:station:TCOON:146:1,2014-01-03T16:00:00Z,28.1324,-97.0345,0.0,5.1,28.0,6.0,'1111122,1111122,1111122' 
TCOON,ioos:station:TCOON:146:1,2014-01-03T17:00:00Z,28.1324,-97.0345,0.0,4.2,30.0,5.2,'1111122,1111122,1111122' 
TCOON,ioos:station:TCOON:146:1,2014-01-03T18:00:00Z,28.1324,-97.0345,0.0,4.0,62.0,5.2,'1111122,1111122,1111122' 
TCOON,ioos:station:TCOON:146:1,2014-01-03T19:00:00Z,28.1324,-97.0345,0.0,4.9,78.0,6.0,'1111122,1111122,1111122' 
TCOON,ioos:station:TCOON:146:1,2014-01-03T20:00:00Z,28.1324,-97.0345,0.0,5.6,80.0,6.4,'1111122,1111122,1111122' 
TCOON,ioos:station:TCOON:146:1,2014-01-03T21:00:00Z,28.1324,-97.0345,0.0,5.9,82.0,7.1,'1111122,1111122,1111122' 
TCOON,ioos:station:TCOON:146:1,2014-01-03T22:00:00Z,28.1324,-97.0345,0.0,6.5,75.0,8.0,'1111122,1111122,1111122' 
TCOON,ioos:station:TCOON:146:1,2014-01-03T23:00:00Z,28.1324,-97.0345,0.0,7.0,73.0,8.3,'1111122,1111122,1111122' 
TCOON,ioos:station:TCOON:146:1,2014-01-04T01:00:00Z,28.1324,-97.0345,0.0,5.8,65.0,7.0,'1111122,1111122,1111122' 
TCOON,ioos:station:TCOON:146:1,2014-01-04T02:00:00Z,28.1324,-97.0345,0.0,4.1,68.0,4.5,'1111122,1111122,1111122' 
TCOON,ioos:station:TCOON:146:1,2014-01-04T03:00:00Z,28.1324,-97.0345,0.0,4.5,92.0,5.1,'1111122,1111122,1111122' 
TCOON,ioos:station:TCOON:146:1,2014-01-04T04:00:00Z,28.1324,-97.0345,0.0,3.4,116.0,3.7,'1111122,1111122,1111122' 
TCOON,ioos:station:TCOON:146:1,2014-01-04T04:30:00Z,28.1324,-97.0345,0.0,3.5,132.0,4.0,'1111122,1111122,1111122' 
TCOON,ioos:station:TCOON:146:1,2014-01-04T05:00:00Z,28.1324,-97.0345,0.0,4.1,125.0,4.5,'1111122,1111122,1111122' 
TCOON,ioos:station:TCOON:146:1,2014-01-04T06:00:00Z,28.1324,-97.0345,0.0,2.5,138.0,2.9,'1111122,1111122,1111122' 
TCOON,ioos:station:TCOON:146:1,2014-01-04T07:00:00Z,28.1324,-97.0345,0.0,3.2,141.0,3.9,'1111122,1111122,1111122' 
TCOON,ioos:station:TCOON:146:1,2014-01-04T07:30:00Z,28.1324,-97.0345,0.0,3.4,139.0,3.7,'1111122,1111122,1111122' 
TCOON,ioos:station:TCOON:146:1,2014-01-04T09:00:00Z,28.1324,-97.0345,0.0,3.5,145.0,4.2,'1111122,1111122,1111122' 
TCOON,ioos:station:TCOON:146:1,2014-01-04T10:00:00Z,28.1324,-97.0345,0.0,3.0,131.0,3.4,'1111122,1111122,1111122' 
TCOON,ioos:station:TCOON:146:1,2014-01-04T11:00:00Z,28.1324,-97.0345,0.0,3.1,144.0,3.3,'1111122,1111122,1111122' 
TCOON,ioos:station:TCOON:146:1,2014-01-04T12:00:00Z,28.1324,-97.0345,0.0,3.2,165.0,4.6,'1111122,1111122,1111122' 
TCOON,ioos:station:TCOON:146:1,2014-01-04T13:00:00Z,28.1324,-97.0345,0.0,3.0,157.0,3.4,'1111122,1111122,1111122' 
TCOON,ioos:station:TCOON:146:1,2014-01-04T14:00:00Z,28.1324,-97.0345,0.0,3.1,156.0,3.3,'1111122,1111122,1111122' 
TCOON,ioos:station:TCOON:146:1,2014-01-04T15:00:00Z,28.1324,-97.0345,0.0,3.0,165.0,4.2,'1111122,1111122,1111122' 
TCOON,ioos:station:TCOON:146:1,2014-01-04T16:00:00Z,28.1324,-97.0345,0.0,2.3,209.0,4.8,'1111122,1111122,1111122' 
TCOON,ioos:station:TCOON:146:1,2014-01-04T17:00:00Z,28.1324,-97.0345,0.0,5.5,164.0,7.5,'1111122,1111122,1111122' 
TCOON,ioos:station:TCOON:146:1,2014-01-04T18:00:00Z,28.1324,-97.0345,0.0,5.9,161.0,7.9,'1111122,1111122,1111122' 
TCOON,ioos:station:TCOON:146:1,2014-01-04T19:00:00Z,28.1324,-97.0345,0.0,5.1,145.0,7.0,'1111122,1111122,1111122' 
TCOON,ioos:station:TCOON:146:1,2014-01-04T20:00:00Z,28.1324,-97.0345,0.0,3.9,139.0,4.8,'1111122,1111122,1111122' 
TCOON,ioos:station:TCOON:146:1,2014-01-04T21:00:00Z,28.1324,-97.0345,0.0,4.9,138.0,5.7,'1111122,1111122,1111122' 
TCOON,ioos:station:TCOON:146:1,2014-01-04T22:00:00Z,28.1324,-97.0345,0.0,5.5,157.0,6.5,'1111122,1111122,1111122' 
TCOON,ioos:station:TCOON:146:1,2014-01-05T00:00:00Z,28.1324,-97.0345,0.0,4.8,144.0,5.6,'1111122,1111122,1111122' 
TCOON,ioos:station:TCOON:146:1,2014-01-05T01:00:00Z,28.1324,-97.0345,0.0,5.6,145.0,6.4,'1111122,1111122,1111122' 
TCOON,ioos:station:TCOON:146:1,2014-01-05T02:00:00Z,28.1324,-97.0345,0.0,5.8,157.0,7.0,'1111122,1111122,1111122' 
TCOON,ioos:station:TCOON:146:1,2014-01-05T03:00:00Z,28.1324,-97.0345,0.0,5.8,167.0,7.3,'1111122,1111122,1111122' 
TCOON,ioos:station:TCOON:146:1,2014-01-05T04:00:00Z,28.1324,-97.0345,0.0,4.8,179.0,6.9,'1111122,1111122,1111122' 
TCOON,ioos:station:TCOON:146:1,2014-01-05T05:00:00Z,28.1324,-97.0345,0.0,4.3,172.0,5.2,'1111122,1111122,1111122' 
TCOON,ioos:station:TCOON:146:1,2014-01-05T06:00:00Z,28.1324,-97.0345,0.0,5.0,172.0,6.2,'1111122,1111122,1111122' 
TCOON,ioos:station:TCOON:146:1,2014-01-05T07:00:00Z,28.1324,-97.0345,0.0,5.2,167.0,7.0,'1111122,1111122,1111122' 
TCOON,ioos:station:TCOON:146:1,2014-01-05T07:30:00Z,28.1324,-97.0345,0.0,5.4,174.0,7.2,'1111122,1111122,1111122' 
TCOON,ioos:station:TCOON:146:1,2014-01-05T09:00:00Z,28.1324,-97.0345,0.0,6.3,186.0,8.1,'1111122,1111122,1111122' 
TCOON,ioos:station:TCOON:146:1,2014-01-05T10:00:00Z,28.1324,-97.0345,0.0,6.0,187.0,7.7,'1111122,1111122,1111122' 
TCOON,ioos:station:TCOON:146:1,2014-01-05T11:00:00Z,28.1324,-97.0345,0.0,5.7,195.0,7.1,'1111122,1111122,1111122' 
TCOON,ioos:station:TCOON:146:1,2014-01-05T12:00:00Z,28.1324,-97.0345,0.0,4.4,193.0,5.9,'1111122,1111122,1111122' 
TCOON,ioos:station:TCOON:146:1,2014-01-05T12:30:00Z,28.1324,-97.0345,0.0,2.1,162.0,2.8,'1111122,1111122,1111122' 
TCOON,ioos:station:TCOON:146:1,2014-01-05T14:00:00Z,28.1324,-97.0345,0.0,2.2,143.0,2.7,'1111122,1111122,1111122' 
TCOON,ioos:station:TCOON:146:1,2014-01-05T15:00:00Z,28.1324,-97.0345,0.0,1.1,133.0,3.6,'1111122,1111122,1111122' 
TCOON,ioos:station:TCOON:146:1,2014-01-05T16:00:00Z,28.1324,-97.0345,0.0,4.7,339.0,5.6,'1111122,1111122,1111122' 
TCOON,ioos:station:TCOON:146:1,2014-01-05T17:00:00Z,28.1324,-97.0345,0.0,4.9,330.0,11.0,'1111122,1111122,1111122' 
TCOON,ioos:station:TCOON:146:1,2014-01-05T18:00:00Z,28.1324,-97.0345,0.0,11.8,356.0,14.0,'1111122,1111122,1111122' 
TCOON,ioos:station:TCOON:146:1,2014-01-05T19:00:00Z,28.1324,-97.0345,0.0,9.8,344.0,12.0,'1111122,1111122,1111122' 
TCOON,ioos:station:TCOON:146:1,2014-01-05T20:00:00Z,28.1324,-97.0345,0.0,9.8,345.0,12.1,'1111122,1111122,1111122' 
TCOON,ioos:station:TCOON:146:1,2014-01-05T21:00:00Z,28.1324,-97.0345,0.0,10.9,342.0,13.1,'1111122,1111122,1111122' 
TCOON,ioos:station:TCOON:146:1,2014-01-05T22:00:00Z,28.1324,-97.0345,0.0,10.5,349.0,12.9,'1111122,1111122,1111122' 
TCOON,ioos:station:TCOON:146:1,2014-01-05T23:00:00Z,28.1324,-97.0345,0.0,9.9,348.0,12.5,'1111122,1111122,1111122' 
TCOON,ioos:station:TCOON:146:1,2014-01-06T00:00:00Z,28.1324,-97.0345,0.0,9.3,350.0,11.3,'1111122,1111122,1111122' 
TCOON,ioos:station:TCOON:146:1,2014-01-06T01:00:00Z,28.1324,-97.0345,0.0,8.2,357.0,10.3,'1111122,1111122,1111122' 
TCOON,ioos:station:TCOON:146:1,2014-01-06T02:00:00Z,28.1324,-97.0345,0.0,10.0,353.0,14.0,'1111122,1111122,1111122' 
TCOON,ioos:station:TCOON:146:1,2014-01-06T03:00:00Z,28.1324,-97.0345,0.0,10.9,356.0,14.2,'1111122,1111122,1111122' 
TCOON,ioos:station:TCOON:146:1,2014-01-06T04:00:00Z,28.1324,-97.0345,0.0,12.5,2.0,15.2,'1111122,1111122,1111122' 
TCOON,ioos:station:TCOON:146:1,2014-01-06T05:00:00Z,28.1324,-97.0345,0.0,11.2,360.0,13.9,'1111122,1111122,1111122' 
TCOON,ioos:station:TCOON:146:1,2014-01-06T06:00:00Z,28.1324,-97.0345,0.0,7.7,359.0,9.2,'1111122,1111122,1111122' 
TCOON,ioos:station:TCOON:146:1,2014-01-06T07:00:00Z,28.1324,-97.0345,0.0,9.9,3.0,12.2,'1111122,1111122,1111122' 
TCOON,ioos:station:TCOON:146:1,2014-01-06T08:00:00Z,28.1324,-97.0345,0.0,9.9,4.0,12.1,'1111122,1111122,1111122' 
TCOON,ioos:station:TCOON:146:1,2014-01-06T09:00:00Z,28.1324,-97.0345,0.0,7.8,355.0,9.7,'1111122,1111122,1111122' 
TCOON,ioos:station:TCOON:146:1,2014-01-06T10:00:00Z,28.1324,-97.0345,0.0,7.0,354.0,9.6,'1111122,1111122,1111122' 
TCOON,ioos:station:TCOON:146:1,2014-01-06T11:00:00Z,28.1324,-97.0345,0.0,6.7,357.0,8.1,'1111122,1111122,1111122' 
TCOON,ioos:station:TCOON:146:1,2014-01-06T12:00:00Z,28.1324,-97.0345,0.0,8.5,350.0,10.4,'1111122,1111122,1111122' 
TCOON,ioos:station:TCOON:146:1,2014-01-06T13:00:00Z,28.1324,-97.0345,0.0,10.1,352.0,12.6,'1111122,1111122,1111122' 
TCOON,ioos:station:TCOON:146:1,2014-01-06T14:00:00Z,28.1324,-97.0345,0.0,8.3,353.0,10.3,'1111122,1111122,1111122' 
TCOON,ioos:station:TCOON:146:1,2014-01-06T15:00:00Z,28.1324,-97.0345,0.0,9.2,356.0,11.6,'1111122,1111122,1111122' 
TCOON,ioos:station:TCOON:146:1,2014-01-06T16:00:00Z,28.1324,-97.0345,0.0,9.0,357.0,11.0,'1111122,1111122,1111122' 
TCOON,ioos:station:TCOON:146:1,2014-01-06T17:00:00Z,28.1324,-97.0345,0.0,9.2,358.0,11.3,'1111122,1111122,1111122' 
TCOON,ioos:station:TCOON:146:1,2014-01-06T18:00:00Z,28.1324,-97.0345,0.0,8.5,359.0,10.6,'1111122,1111122,1111122' 
TCOON,ioos:station:TCOON:146:1,2014-01-06T18:30:00Z,28.1324,-97.0345,0.0,9.0,0.0,11.3,'1111122,1114422,1111122' 
TCOON,ioos:station:TCOON:146:1,2014-01-06T20:00:00Z,28.1324,-97.0345,0.0,7.7,6.0,9.8,'1111122,1111122,1111122' 
TCOON,ioos:station:TCOON:146:1,2014-01-06T21:00:00Z,28.1324,-97.0345,0.0,7.6,7.0,10.6,'1111122,1111122,1111122' 
TCOON,ioos:station:TCOON:146:1,2014-01-06T22:00:00Z,28.1324,-97.0345,0.0,6.2,9.0,8.4,'1111122,1111122,1111122' 
TCOON,ioos:station:TCOON:146:1,2014-01-07T00:00:00Z,28.1324,-97.0345,0.0,5.7,354.0,7.0,'1111122,1111122,1111122' 
TCOON,ioos:station:TCOON:146:1,2014-01-07T01:00:00Z,28.1324,-97.0345,0.0,5.6,351.0,6.9,'1111122,1111122,1111122' 
TCOON,ioos:station:TCOON:146:1,2014-01-07T02:00:00Z,28.1324,-97.0345,0.0,5.0,343.0,6.9,'1111122,1111122,1111122' 
TCOON,ioos:station:TCOON:146:1,2014-01-07T03:00:00Z,28.1324,-97.0345,0.0,5.8,352.0,7.2,'1111122,1111122,1111122' 
TCOON,ioos:station:TCOON:146:1,2014-01-07T04:00:00Z,28.1324,-97.0345,0.0,5.0,346.0,6.4,'1111122,1111122,1111122' 
TCOON,ioos:station:TCOON:146:1,2014-01-07T05:00:00Z,28.1324,-97.0345,0.0,6.1,358.0,7.3,'1111122,1111122,1111122' 
TCOON,ioos:station:TCOON:146:1,2014-01-07T07:00:00Z,28.1324,-97.0345,0.0,5.2,5.0,6.3,'1111122,1111122,1111122' 
TCOON,ioos:station:TCOON:146:1,2014-01-07T08:00:00Z,28.1324,-97.0345,0.0,4.2,5.0,5.2,'1111122,1111122,1111122' 
TCOON,ioos:station:TCOON:146:1,2014-01-07T10:00:00Z,28.1324,-97.0345,0.0,4.4,30.0,5.2,'1111122,1111122,1111122' 
TCOON,ioos:station:TCOON:146:1,2014-01-07T11:00:00Z,28.1324,-97.0345,0.0,4.1,23.0,5.1,'1111122,1111122,1111122' 
TCOON,ioos:station:TCOON:146:1,2014-01-07T12:00:00Z,28.1324,-97.0345,0.0,3.5,23.0,4.4,'1111122,1111122,1111122' 
TCOON,ioos:station:TCOON:146:1,2014-01-07T13:00:00Z,28.1324,-97.0345,0.0,3.5,21.0,4.5,'1111122,1111122,1111122' 
TCOON,ioos:station:TCOON:146:1,2014-01-07T14:00:00Z,28.1324,-97.0345,0.0,4.0,34.0,5.0,'1111122,1111122,1111122' 
TCOON,ioos:station:TCOON:146:1,2014-01-07T15:00:00Z,28.1324,-97.0345,0.0,5.1,19.0,6.4,'1111122,1111122,1111122' 
TCOON,ioos:station:TCOON:146:1,2014-01-07T16:00:00Z,28.1324,-97.0345,0.0,4.5,15.0,5.5,'1111122,1111122,1111122' 
TCOON,ioos:station:TCOON:146:1,2014-01-07T17:00:00Z,28.1324,-97.0345,0.0,4.2,25.0,5.1,'1111122,1111122,1111122' 
TCOON,ioos:station:TCOON:146:1,2014-01-07T18:00:00Z,28.1324,-97.0345,0.0,5.3,49.0,6.8,'1111122,1111122,1111122' 
TCOON,ioos:station:TCOON:146:1,2014-01-07T19:00:00Z,28.1324,-97.0345,0.0,5.2,54.0,7.1,'1111122,1111122,1111122' 
TCOON,ioos:station:TCOON:146:1,2014-01-07T19:30:00Z,28.1324,-97.0345,0.0,5.8,67.0,7.7,'1111122,1111122,1111122' 
TCOON,ioos:station:TCOON:146:1,2014-01-07T21:00:00Z,28.1324,-97.0345,0.0,6.4,63.0,7.6,'1111122,1111122,1111122' 
TCOON,ioos:station:TCOON:146:1,2014-01-07T22:00:00Z,28.1324,-97.0345,0.0,5.9,67.0,7.4,'1111122,1111122,1111122' 
TCOON,ioos:station:TCOON:146:1,2014-01-07T23:00:00Z,28.1324,-97.0345,0.0,5.5,59.0,6.4,'1111122,1111122,1111122' 
TCOON,ioos:station:TCOON:146:1,2014-01-08T01:00:00Z,28.1324,-97.0345,0.0,4.6,47.0,5.5,'1111122,1111122,1111122' 
TCOON,ioos:station:TCOON:146:1,2014-01-08T02:00:00Z,28.1324,-97.0345,0.0,3.8,62.0,4.7,'1111122,1111122,1111122' 
TCOON,ioos:station:TCOON:146:1,2014-01-08T03:00:00Z,28.1324,-97.0345,0.0,4.0,100.0,4.5,'1111122,1111122,1111122' 
TCOON,ioos:station:TCOON:146:1,2014-01-08T04:00:00Z,28.1324,-97.0345,0.0,4.0,120.0,4.7,'1111122,1111122,1111122' 
TCOON,ioos:station:TCOON:146:1,2014-01-08T05:00:00Z,28.1324,-97.0345,0.0,3.8,137.0,4.2,'1111122,1111122,1111122' 
TCOON,ioos:station:TCOON:146:1,2014-01-08T07:00:00Z,28.1324,-97.0345,0.0,4.1,135.0,4.8,'1111122,1111122,1111122' 
TCOON,ioos:station:TCOON:146:1,2014-01-08T08:00:00Z,28.1324,-97.0345,0.0,4.1,136.0,4.6,'1111122,1111122,1111122' 
TCOON,ioos:station:TCOON:146:1,2014-01-08T09:00:00Z,28.1324,-97.0345,0.0,5.3,122.0,6.3,'1111122,1111122,1111122' 
TCOON,ioos:station:TCOON:146:1,2014-01-08T10:00:00Z,28.1324,-97.0345,0.0,3.0,132.0,3.4,'1111122,1111122,1111122' 
TCOON,ioos:station:TCOON:146:1,2014-01-08T11:00:00Z,28.1324,-97.0345,0.0,2.4,129.0,3.0,'1111122,1111122,1111122' 
TCOON,ioos:station:TCOON:146:1,2014-01-08T12:00:00Z,28.1324,-97.0345,0.0,1.9,148.0,2.2,'1111122,1111122,1111122' 
TCOON,ioos:station:TCOON:146:1,2014-01-08T13:00:00Z,28.1324,-97.0345,0.0,1.8,118.0,2.3,'1111122,1111122,1111122' 
TCOON,ioos:station:TCOON:146:1,2014-01-08T14:00:00Z,28.1324,-97.0345,0.0,1.9,138.0,2.4,'1111122,1111122,1111122' 
TCOON,ioos:station:TCOON:146:1,2014-01-08T15:00:00Z,28.1324,-97.0345,0.0,1.2,153.0,1.6,'1111122,1111122,1111122' 
TCOON,ioos:station:TCOON:146:1,2014-01-08T16:00:00Z,28.1324,-97.0345,0.0,0.2,243.0,0.7,'1111122,1111122,1111122' 
TCOON,ioos:station:TCOON:146:1,2014-01-08T17:00:00Z,28.1324,-97.0345,0.0,0.5,27.0,1.1,'1111122,1111122,1111122' 
TCOON,ioos:station:TCOON:146:1,2014-01-08T18:00:00Z,28.1324,-97.0345,0.0,1.8,117.0,4.2,'1111122,1111122,1111122' 
TCOON,ioos:station:TCOON:146:1,2014-01-08T19:00:00Z,28.1324,-97.0345,0.0,1.0,78.0,2.2,'1111122,1111122,1111122' 
TCOON,ioos:station:TCOON:146:1,2014-01-08T21:00:00Z,28.1324,-97.0345,0.0,3.0,120.0,3.5,'1111122,1111122,1111122' 
TCOON,ioos:station:TCOON:146:1,2014-01-08T22:00:00Z,28.1324,-97.0345,0.0,1.9,115.0,2.2,'1111122,1111122,1111122' 
TCOON,ioos:station:TCOON:146:1,2014-01-08T23:00:00Z,28.1324,-97.0345,0.0,2.4,120.0,2.9,'1111122,1111122,1111122' 
TCOON,ioos:station:TCOON:146:1,2014-01-09T00:00:00Z,28.1324,-97.0345,0.0,3.9,136.0,4.5,'1111122,1111122,1111122' 
TCOON,ioos:station:TCOON:146:1,2014-01-09T01:00:00Z,28.1324,-97.0345,0.0,4.3,154.0,4.9,'1111122,1111122,1111122' 
TCOON,ioos:station:TCOON:146:1,2014-01-09T02:00:00Z,28.1324,-97.0345,0.0,2.8,140.0,3.1,'1111122,1111122,1111122' 
TCOON,ioos:station:TCOON:146:1,2014-01-09T03:00:00Z,28.1324,-97.0345,0.0,3.1,159.0,3.8,'1111122,1111122,1111122' 
TCOON,ioos:station:TCOON:146:1,2014-01-09T04:00:00Z,28.1324,-97.0345,0.0,4.3,160.0,5.0,'1111122,1111122,1111122' 
TCOON,ioos:station:TCOON:146:1,2014-01-09T05:00:00Z,28.1324,-97.0345,0.0,1.7,245.0,2.3,'1111122,1111122,1111122' 
TCOON,ioos:station:TCOON:146:1,2014-01-09T06:00:00Z,28.1324,-97.0345,0.0,3.1,208.0,3.6,'1111122,1111122,1111122' 
TCOON,ioos:station:TCOON:146:1,2014-01-09T07:00:00Z,28.1324,-97.0345,0.0,1.6,154.0,1.9,'1111122,1111122,1111122' 
TCOON,ioos:station:TCOON:146:1,2014-01-09T08:00:00Z,28.1324,-97.0345,0.0,3.3,187.0,4.5,'1111122,1111122,1111122' 
TCOON,ioos:station:TCOON:146:1,2014-01-09T09:00:00Z,28.1324,-97.0345,0.0,3.9,197.0,4.7,'1111122,1111122,1111122' 
TCOON,ioos:station:TCOON:146:1,2014-01-09T10:00:00Z,28.1324,-97.0345,0.0,1.1,322.0,1.5,'1111122,1111122,1111122' 
TCOON,ioos:station:TCOON:146:1,2014-01-09T11:00:00Z,28.1324,-97.0345,0.0,0.8,6.0,1.1,'1111122,1111122,1111122' 
TCOON,ioos:station:TCOON:146:1,2014-01-09T12:00:00Z,28.1324,-97.0345,0.0,0.5,207.0,1.1,'1111122,1111122,1111122' 
TCOON,ioos:station:TCOON:146:1,2014-01-09T13:00:00Z,28.1324,-97.0345,0.0,0.7,65.0,1.2,'1111122,1111122,1111122' 
TCOON,ioos:station:TCOON:146:1,2014-01-09T14:00:00Z,28.1324,-97.0345,0.0,1.2,115.0,1.6,'1111122,1111122,1111122' 
TCOON,ioos:station:TCOON:146:1,2014-01-09T15:00:00Z,28.1324,-97.0345,0.0,1.1,110.0,1.9,'1111122,1111122,1111122' 
TCOON,ioos:station:TCOON:146:1,2014-01-09T16:00:00Z,28.1324,-97.0345,0.0,1.8,123.0,2.4,'1111122,1111122,1111122' 
TCOON,ioos:station:TCOON:146:1,2014-01-09T17:00:00Z,28.1324,-97.0345,0.0,1.5,103.0,1.9,'1111122,1111122,1111122' 
TCOON,ioos:station:TCOON:146:1,2014-01-09T18:00:00Z,28.1324,-97.0345,0.0,2.1,111.0,2.5,'1111122,1111122,1111122' 
TCOON,ioos:station:TCOON:146:1,2014-01-09T19:00:00Z,28.1324,-97.0345,0.0,3.4,154.0,5.2,'1111122,1111122,1111122' 
TCOON,ioos:station:TCOON:146:1,2014-01-09T20:00:00Z,28.1324,-97.0345,0.0,3.2,129.0,3.5,'1111122,1111122,1111122' 
TCOON,ioos:station:TCOON:146:1,2014-01-10T01:00:00Z,28.1324,-97.0345,0.0,2.0,106.0,2.4,'1111122,1111122,1111122' 
TCOON,ioos:station:TCOON:146:1,2014-01-10T02:00:00Z,28.1324,-97.0345,0.0,2.3,142.0,2.5,'1111122,1111122,1111122' 
TCOON,ioos:station:TCOON:146:1,2014-01-10T03:00:00Z,28.1324,-97.0345,0.0,1.6,131.0,2.2,'1111122,1111122,1111122' 
TCOON,ioos:station:TCOON:146:1,2014-01-10T04:00:00Z,28.1324,-97.0345,0.0,1.5,125.0,2.1,'1111122,1111122,1111122' 
TCOON,ioos:station:TCOON:146:1,2014-01-10T05:00:00Z,28.1324,-97.0345,0.0,1.3,178.0,1.5,'1111122,1111122,1111122' 
TCOON,ioos:station:TCOON:146:1,2014-01-10T06:00:00Z,28.1324,-97.0345,0.0,2.1,86.0,2.6,'1111122,1111122,1111122' 
TCOON,ioos:station:TCOON:146:1,2014-01-10T07:00:00Z,28.1324,-97.0345,0.0,2.2,85.0,2.5,'1111122,1111122,1111122' 
TCOON,ioos:station:TCOON:146:1,2014-01-10T08:00:00Z,28.1324,-97.0345,0.0,2.7,106.0,3.2,'1111122,1111122,1111122' 